Regional Weather Roundup
Issued by NWS

Home | Current Version | Previous Version | Graphics & Text | Print | Product List | Glossary On
Versions: 1 2 3 4 5 6 7 8 9 10 11 12 13 14 15 16 17 18 19 20 21 22 23 24 25 26 27 28 29 30 31 32 33 34 35 36 37 38 39 40 41 42 43 44 45 46 47 48 49 50
000
ASUS43 KLOT 241008
RWRIL

ILLINOIS REGIONAL WEATHER ROUNDUP
NATIONAL WEATHER SERVICE CHICAGO/ROMEOVILLE IL
400 AM CST TUE JAN 24 2017

NOTE: "FAIR" INDICATES FEW OR NO CLOUDS BELOW 12,000 FEET WITH NO
SIGNIFICANT WEATHER AND/OR OBSTRUCTIONS TO VISIBILITY.

* THESE STATIONS ARE NOT UNDER NWS QUALITY CONTROL. THEY ALSO MAY NOT
  REPORT WEATHER SUCH AS PRECIPITATION OR FOG.

ILZ001-002-007-009-015-016-024-241100-
NORTHWEST ILLINOIS

CITY           SKY/WX    TMP DP  RH WIND       PRES   REMARKS
MOLINE         CLOUDY    34  30  85 CALM      29.87R
STERLING*      CLOUDY    35  33  92 W3        29.87R
SAVANNA*       CLOUDY    34  32  92 NW3       29.86S
$$

ILZ003-004-008-010-011-017-018-241100-
NORTH CENTRAL ILLINOIS

CITY           SKY/WX    TMP DP  RH WIND       PRES   REMARKS
ROCKFORD       CLOUDY    36  31  82 N7        29.86F WCI  30
FREEPORT*      CLOUDY    34  30  86 NW6       29.86S WCI  29
ROCHELLE*      CLOUDY    35  32  91 CALM      29.86R
DE KALB*       CLOUDY    35  33  90 NW6       29.84S WCI  30
PERU*          CLOUDY    34  32  93 W3        29.87R FOG
$$

ILZ005-006-012>014-019>023-241100-
NORTHEAST ILLINOIS

CITY           SKY/WX    TMP DP  RH WIND       PRES   REMARKS
CHICAGO-OHARE  CLOUDY    37  33  85 NW8       29.83S WCI  31
CHICAGO-MIDWAY CLOUDY    38  32  79 NW10      29.83S WCI  31
AURORA         CLOUDY    37  33  85 NW7       29.85R WCI  32
LANSING*       CLOUDY    38  35  89 NW8       29.83S WCI  32
JOLIET*        CLOUDY    38  35  86 NW6       29.85R WCI  34
WAUKEGAN       CLOUDY    37  34  89 NW7       29.82S WCI  32
DUPAGE AIRPORT CLOUDY    37  31  78 NW10      29.83S WCI  30
KANKAKEE*      CLOUDY    38  33  84 NW10      29.85R WCI  31
WHEELING       CLOUDY    37  33  85 NW6       29.84F WCI  32
MORRIS*        CLOUDY    37  34  90 CALM      29.85R
ROMEOVILLE*    CLOUDY    36  35  96 NW7       29.84S WCI  31
NORTHERLY ISL    N/A     38  33  82 W6          N/A  WCI  33
$$

LMZ740>746-241100-
SOUTHERN LAKE MICHIGAN

STATION/POSITION SKY/WX   TEMP    WIND        PRES    VSBY  WAVE
                          AIR SEA DIR/SP/G                  HT/PER
                          (F)     (DEG/KT/KT) (MB)    (MI)  (FT/S)
HARRISON CRIB              38     310/ 13/ 14   N/A
BURNHAM HARBOR             38     320/  9/ 10   N/A
CALUMET HARBOR             39     310/  5/  9 1009.7S
BURNS HARBOR               35     310/  8/  9 1010.8R
MICHIGAN CITY              36     290/ 10/ 10   N/A
$$

ILZ025>027-034>036-040-047-049-050-058-095>099-241100-
WEST-CENTRAL ILLINOIS

CITY           SKY/WX    TMP DP  RH WIND       PRES   REMARKS
QUINCY         CLOUDY    34  29  82 SW3       29.88S
GALESBURG*     CLOUDY    32  32 100 W6        29.88S WCI  27
MACOMB*        CLOUDY    33  32  94 W3        29.90F
JACKSONVILLE*  CLOUDY    36  32  88 W3        29.88S
PITTSFIELD*    CLOUDY    35  31  85 SW3       29.90S
$$

ILZ028>032-037-038-041>044-048-051>054-059>061-241100-
CENTRAL ILLINOIS

CITY           SKY/WX    TMP DP  RH WIND       PRES   REMARKS
PONTIAC        CLOUDY    37  37 100 NW7       29.87R WCI  32
BLOOMINGTON    CLOUDY    37  35  92 W7        29.86R WCI  32
DECATUR        CLOUDY    38  37  97 NW7       29.86S WCI  33
PEORIA         CLOUDY    35  33  92 W3        29.88S
LACON*         CLOUDY    35  34  95 NW3       29.87R
LINCOLN*       CLOUDY    37  36  95 W5        29.88R WCI  33
SPRINGFIELD    CLOUDY    38  33  82 NW6       29.88S WCI  33
TAYLORVILLE    CLOUDY    37  34  89 W6        29.88R WCI  32
$$

ILZ033-039-045-046-055>057-062-063-241100-
EAST-CENTRAL ILLINOIS

CITY           SKY/WX    TMP DP  RH WIND       PRES   REMARKS
CHAMPAIGN      CLOUDY    39  35  86 NW6       29.85R WCI  35
RANTOUL*       CLOUDY    39  37  93 NW6       29.85R WCI  35
MATTOON        CLOUDY    39  34  82 NW9       29.85R WCI  33
PARIS*         CLOUDY    39  37  93 NW5       29.85R
$$

ILZ079-100>102-241100-
SOUTHWEST ILLINOIS

CITY           SKY/WX    TMP DP  RH WIND       PRES   REMARKS
ALTON          CLOUDY    37  32  82 W3        29.90R
BELLEVILLE     CLOUDY    39  32  75 CALM      29.89R
CAHOKIA*       CLOUDY    40  33  76 CALM      29.90R
SPARTA*        CLOUDY    37  32  82 CALM      29.90R
$$

ILZ064>066-069>071-074>076-080>082-084>086-088>090-092>094-241100-
SOUTH-CENTRAL ILLINOIS

CITY           SKY/WX    TMP DP  RH WIND       PRES   REMARKS
CARBONDALE     CLOUDY    39  34  82 N3        29.90R
CAIRO*         CLOUDY    36  35  96 CALM      29.90R
EFFINGHAM*     CLOUDY    40  36  85 W8        29.89R
MARION         CLOUDY    41  36  81 NW3       29.90R
MT. VERNON     CLOUDY    39  33  79 W3        29.89R
CENTRALIA*     CLOUDY    40  35  83 W3        29.89R
SALEM*         CLOUDY    40  36  84 NW3       29.88S
METROPOLIS*    CLOUDY    40  34  79 CALM      29.91R
$$

ILZ067-068-072-073-078-083-087-091-241100-
SOUTHEAST ILLINOIS

CITY           SKY/WX    TMP DP  RH WIND       PRES   REMARKS
LAWRENCEVILLE  CLOUDY    41  36  82 NW10      29.87R
FLORA*         CLOUDY    41  36  80 NW6       29.89R
FAIRFIELD*     CLOUDY    40  35  80 CALM      29.88R
HARRISBURG*    CLOUDY    40  34  80 N5        29.90R
ROBINSON*      CLOUDY    39  35  83 NW6       29.87R
CARMI*         CLOUDY    40  36  83 NW3       29.87F
$$

ABBREVIATIONS USED IN REMARKS
   TC - TEMPERATURE IN CELSIUS
  WCI - WIND CHILL INDEX
   HX - HEAT INDEX
  VSB - VISIBILITY
$$





USA.gov is the U.S. government's official web portal to all federal, state and local government web resources and services.